Date String (YYYY-MM-DD hh:mm:ss) UTC,Instrument flags,absolute air pressure of the measurement (hPa),sample flow rate (lpm),inlet stack bypass flow (lpm),air temperature of the measurement (°C),ambient temperature measured by the external sensor (°C),aerosol sample conditioner tube jacket temperature (°C),OPC LED temperature (°C),internal box temperature (°C),relative humidity of the measurement (%),span deviation,mass concentration of particles derived from Lorenz-Mie calculation of OPC scattering (μg/m³),mass concentration of particles derived from Lorenz-Mie calculation of OPC scattering (μg/m³),mass concentration of particles derived from Lorenz-Mie calculation of OPC scattering (μg/m³)
DateTimeUTC,F1_M11,P_M11,Q1_M11,Q2_M11,T1_M11,T2_M11,T3_M11,T4_M11,T5_M11,U1_M11,ZSPAN_M11,X0_M11,X2_M11,X1_M11
2024-02-17 14:00:00,SystemResetWarning,0835.8,4.99,000.00,018.4,017.7,000.0,027.2,020.0,09.3,0000.0,0007.47,0006.17,0006.08
2024-02-17 14:01:00,SystemResetWarning,0835.8,5.00,000.00,018.4,017.9,000.0,027.2,020.2,09.3,0000.0,0007.56,0006.28,0006.20
2024-02-17 14:02:00,SystemResetWarning,0835.8,5.01,000.00,018.6,018.6,000.0,027.3,020.7,09.2,0000.0,0007.66,0006.39,0006.30
2024-02-17 14:03:00,SystemResetWarning,0835.9,5.00,000.00,018.9,019.3,000.0,027.3,021.2,09.1,0000.0,0008.00,0006.51,0006.42
2024-02-17 14:04:00,SystemResetWarning,0835.8,4.99,000.00,018.9,019.3,000.0,027.3,020.9,09.1,0000.0,0008.15,0006.62,0006.53
2024-02-17 14:05:00,SystemResetWarning,0835.8,4.99,000.00,018.8,018.9,000.0,027.2,020.5,09.1,0000.0,0008.21,0006.73,0006.65
2024-02-17 14:06:00,SystemResetWarning,0835.8,5.01,000.00,018.7,018.6,000.0,027.1,020.2,09.2,0000.0,0008.28,0006.82,0006.74
2024-02-17 14:07:00,SystemResetWarning,0835.8,5.01,000.00,018.6,018.2,000.0,027.1,020.0,09.3,0000.0,0008.37,0006.89,0006.80
2024-02-17 14:08:00,SystemResetWarning,0835.9,5.00,000.00,018.5,018.0,000.0,027.2,020.0,09.5,0000.0,0008.42,0006.93,0006.84
2024-02-17 14:09:00,SystemResetWarning,0835.8,5.00,000.00,018.5,017.8,000.0,027.2,020.0,09.6,0000.0,0008.55,0006.96,0006.87
2024-02-17 14:10:00,SystemResetWarning,0835.8,4.99,000.00,018.5,017.8,000.0,027.3,020.2,09.7,0000.0,0008.97,0006.98,0006.88
2024-02-17 14:11:00,SystemResetWarning,0835.8,5.01,000.00,018.6,018.6,000.0,027.3,020.7,09.8,0000.0,0009.00,0007.00,0006.88
2024-02-17 14:12:00,SystemResetWarning,0835.8,4.99,000.00,018.9,019.3,000.0,027.4,021.1,09.7,0000.0,0009.01,0007.00,0006.88
2024-02-17 14:13:00,SystemResetWarning,0835.8,4.99,000.00,018.9,019.2,000.0,027.3,020.9,09.7,0000.0,0009.02,0007.01,0006.89
2024-02-17 14:14:00,SystemResetWarning,0835.8,5.00,000.00,018.9,018.9,000.0,027.2,020.6,09.8,0000.0,0008.79,0006.99,0006.87
2024-02-17 14:15:00,SystemResetWarning,0835.8,5.00,000.00,018.8,018.5,000.0,027.2,020.3,10.0,0000.0,0008.67,0006.96,0006.85
2024-02-17 14:16:00,SystemResetWarning,0835.8,5.00,000.00,018.6,018.2,000.0,027.2,020.0,10.1,0000.0,0008.66,0006.95,0006.84
2024-02-17 14:17:00,SystemResetWarning,0835.8,5.00,000.00,018.5,017.9,000.0,027.2,020.0,10.3,0000.0,0008.69,0006.96,0006.83
2024-02-17 14:18:00,SystemResetWarning,0835.8,5.00,000.00,018.5,017.7,000.0,027.2,020.0,10.3,0000.0,0008.67,0006.97,0006.85
2024-02-17 14:19:00,SystemResetWarning,0835.8,5.01,000.00,018.5,018.2,000.0,027.3,020.4,10.4,0000.0,0008.66,0007.00,0006.88
2024-02-17 14:20:00,SystemResetWarning,0835.8,4.99,000.00,018.8,019.0,000.0,027.4,021.0,10.3,0000.0,0008.55,0007.02,0006.91
2024-02-17 14:21:00,SystemResetWarning,0835.8,4.98,000.00,019.0,019.4,000.0,027.4,021.2,10.3,0000.0,0008.21,0007.04,0006.94
2024-02-17 14:22:00,SystemResetWarning,0835.8,5.00,000.00,018.9,019.1,000.0,027.3,020.8,10.3,0000.0,0008.24,0007.07,0006.97
2024-02-17 14:23:00,SystemResetWarning,0835.7,5.00,000.00,018.8,018.8,000.0,027.3,020.5,10.4,0000.0,0008.24,0007.08,0006.98
2024-02-17 14:24:00,SystemResetWarning,0835.9,5.00,000.00,018.7,018.3,000.0,027.2,020.2,10.5,0000.0,0008.25,0007.10,0007.01
2024-02-17 14:25:00,SystemResetWarning,0835.7,5.01,000.00,018.6,017.9,000.0,027.2,020.0,10.6,0000.0,0008.29,0007.13,0007.04
2024-02-17 14:26:00,SystemResetWarning,0835.7,5.00,000.00,018.5,017.6,000.0,027.2,020.0,10.8,0000.0,0008.53,0007.14,0007.05
2024-02-17 14:27:00,SystemResetWarning,0835.6,5.00,000.00,018.5,017.8,000.0,027.3,020.2,10.9,0000.0,0008.96,0007.16,0007.07
2024-02-17 14:28:00,SystemResetWarning,0835.7,5.02,000.00,018.7,018.7,000.0,027.4,020.8,10.8,0000.0,0008.95,0007.17,0007.09
2024-02-17 14:29:00,SystemResetWarning,0835.8,4.99,000.00,018.9,019.6,000.0,027.4,021.4,10.7,0000.0,0008.95,0007.16,0007.08
2024-02-17 14:30:00,SystemResetWarning,0835.7,4.99,000.00,019.1,019.6,000.0,027.4,021.2,10.7,0000.0,0008.95,0007.15,0007.07
2024-02-17 14:31:00,SystemResetWarning,0835.6,5.00,000.00,019.0,019.2,000.0,027.3,020.8,10.8,0000.0,0008.91,0007.12,0007.05
2024-02-17 14:32:00,SystemResetWarning,0835.6,4.99,000.00,018.9,018.8,000.0,027.3,020.5,10.9,0000.0,0008.86,0007.10,0007.03
2024-02-17 14:33:00,SystemResetWarning,0835.6,5.00,000.00,018.8,018.5,000.0,027.2,020.2,11.0,0000.0,0008.81,0007.09,0007.02
2024-02-17 14:34:00,SystemResetWarning,0835.6,5.00,000.00,018.7,018.1,000.0,027.2,020.1,11.1,0000.0,0008.81,0007.10,0007.04
2024-02-17 14:35:00,SystemResetWarning,0835.6,5.00,000.00,018.6,017.8,000.0,027.2,020.0,11.2,0000.0,0008.81,0007.11,0007.04
2024-02-17 14:36:00,SystemResetWarning,0835.8,5.00,000.00,018.5,017.6,000.0,027.3,020.0,11.2,0000.0,0008.85,0007.14,0007.06
2024-02-17 14:37:00,SystemResetWarning,0835.7,5.01,000.00,018.5,017.7,000.0,027.3,020.2,11.3,0001.2,0008.75,0007.16,0007.08
2024-02-17 14:38:00,SystemResetWarning,0835.8,5.01,000.00,018.7,018.6,000.0,027.4,020.8,11.2,0000.3,0008.21,0007.17,0007.10
2024-02-17 14:39:00,SystemResetWarning,0835.6,4.99,000.00,018.9,019.4,000.0,027.4,021.2,11.1,0000.0,0008.23,0007.18,0007.11
2024-02-17 14:40:00,SystemResetWarning,0835.6,4.99,000.00,019.0,019.2,000.0,027.4,021.0,11.1,0001.2,0008.29,0007.20,0007.11
2024-02-17 14:41:00,SystemResetWarning,0835.7,4.99,000.00,018.9,018.9,000.0,027.3,020.6,11.1,0002.0,0008.30,0007.21,0007.12
2024-02-17 14:42:00,SystemResetWarning,0835.6,5.00,000.00,018.8,018.6,000.0,027.3,020.4,11.2,0001.7,0008.36,0007.24,0007.14
2024-02-17 14:43:00,SystemResetWarning,0835.6,5.00,000.00,018.7,018.2,000.0,027.2,020.1,11.3,0000.0,0008.52,0007.26,0007.15
2024-02-17 14:44:00,SystemResetWarning,0835.6,5.00,000.00,018.6,017.9,000.0,027.2,020.0,11.4,0001.2,0008.58,0007.28,0007.15
2024-02-17 14:45:00,SystemResetWarning,0835.6,5.00,000.00,018.5,017.7,000.0,027.2,020.0,11.5,0001.8,0008.63,0007.30,0007.16
2024-02-17 14:46:00,SystemResetWarning,0835.6,5.00,000.00,018.5,017.8,000.0,027.3,020.1,11.6,0001.5,0008.67,0007.30,0007.16
2024-02-17 14:47:00,SystemResetWarning,0835.7,5.02,000.00,018.7,018.7,000.0,027.4,020.8,11.5,0001.8,0008.62,0007.29,0007.17
2024-02-17 14:48:00,SystemResetWarning,0835.7,4.98,000.00,018.9,019.5,000.0,027.4,021.3,11.4,0002.0,0008.66,0007.31,0007.17
2024-02-17 14:49:00,SystemResetWarning,0835.6,5.00,000.00,019.0,019.4,000.0,027.4,021.1,11.3,0002.2,0008.66,0007.31,0007.17
2024-02-17 14:50:00,SystemResetWarning,0835.6,5.02,000.00,018.9,019.0,000.0,027.3,020.8,11.4,0002.0,0008.74,0007.34,0007.19
2024-02-17 14:51:00,SystemResetWarning,0835.6,5.00,000.00,018.8,018.6,000.0,027.3,020.5,11.4,0002.0,0008.74,0007.36,0007.21
2024-02-17 14:52:00,SystemResetWarning,0835.6,5.00,000.00,018.7,018.2,000.0,027.2,020.3,11.5,0002.3,0008.76,0007.38,0007.23
2024-02-17 14:53:00,SystemResetWarning,0835.6,4.99,000.00,018.6,017.9,000.0,027.2,020.1,11.6,0002.8,0008.72,0007.38,0007.23
2024-02-17 14:54:00,SystemResetWarning,0835.6,5.00,000.00,018.5,017.6,000.0,027.2,020.0,11.7,0003.3,0008.59,0007.37,0007.24
2024-02-17 14:55:00,SystemResetWarning,0835.6,5.01,000.00,018.5,017.4,000.0,027.3,020.0,11.7,0001.0,0008.57,0007.36,0007.24
2024-02-17 14:56:00,SystemResetWarning,0835.6,5.01,000.00,018.5,017.9,000.0,027.3,020.4,11.8,0000.0,0008.56,0007.36,0007.24
2024-02-17 14:57:00,SystemResetWarning,0835.6,5.00,000.00,018.7,019.0,000.0,027.4,021.1,11.6,0000.0,0008.53,0007.33,0007.22
2024-02-17 14:58:00,SystemResetWarning,0835.6,4.99,000.00,019.0,019.4,000.0,027.4,021.3,11.5,0000.0,0008.58,0007.32,0007.20
2024-02-17 14:59:00,SystemResetWarning,0835.6,4.99,000.00,019.0,019.2,000.0,027.4,020.9,11.5,0000.0,0008.55,0007.30,0007.20
